Walnut Ridge, AR

10:55 PM CDT on July 23, 2017 (GMT -0500)
Walnut Ridge Regional

Weather History for KARG - June, 2012

Change the Weather History Date:

Tuesday, June 5, 2012

  Actual Average Record
Temperature  
Mean Temperature 76 °F -  
Max Temperature 84 °F 81 °F 96 °F (2011)
Min Temperature 68 °F 63 °F 57 °F (1997)
Cooling Degree Days 11    
Growing Degree Days 26 (Base 50)    
Moisture  
Dew Point 62 °F    
Average Humidity 65    
Maximum Humidity 94    
Minimum Humidity 37    
Precipitation  
Precipitation 0.00 in - - ()
Sea Level Pressure  
Sea Level Pressure 29.84 in    
Wind  
Wind Speed 12 mph (NE)    
Max Wind Speed 18 mph    
Max Gust Speed 23 mph    
Visibility 9 miles    
Events      
Averages and records for this station are not official NWS values.
T = Trace of Precipitation, MM = Missing Value Source: NWS Daily Summary

Daily Weather History Graph

Daily Weather History Graph

Search for Another Location

Airport or City:

Trip Planner

Search our weather history database for the weather conditions in past years. The results will help you decide how hot, cold, wet, or windy it might be!

Date:

Astronomy

Jun. 05, 2012 Rise Set
Actual Time 5:46 AM CDT 8:18 PM CDT
Civil Twilight 5:16 AM CDT 8:48 PM CDT
Nautical Twilight 4:39 AM CDT 9:25 PM CDT
Astronomical Twilight 3:58 AM CDT 10:06 PM CDT
Moon 9:44 PM CDT (6/5) 6:58 AM CDT (6/5)
Length of Visible Light 15h 31m
Length of Day
14h 31m
Full, 98% of the Moon is Illuminated
Jun 5
Full
Jun 11
Last Quarter
Jun 19
New
Jun 26
First Quarter
Jul 3
Full

Hourly Weather History & Observations

Time (CDT) Temp. Heat Index Dew Point Humidity Pressure Visibility Wind Dir Wind Speed Gust Speed Precip Events Conditions
12:15 AM 75.2 °F - 71.6 °F 89% 29.76 in 9.0 mi SW 9.2 mph - N/A   Clear
12:35 AM 75.2 °F - 71.6 °F 89% 29.76 in 9.0 mi SW 9.2 mph - N/A   Clear
1:15 AM 75.2 °F - 71.6 °F 89% 29.76 in 10.0 mi West 6.9 mph - N/A   Partly Cloudy
1:35 AM 73.4 °F - 71.6 °F 94% 29.77 in 6.0 mi NNW 11.5 mph - N/A   Partly Cloudy
1:55 AM 71.6 °F - 69.8 °F 94% 29.76 in 10.0 mi North 8.1 mph - N/A   Clear
2:15 AM 71.6 °F - 69.8 °F 94% 29.76 in 10.0 mi North 6.9 mph - N/A   Clear
2:35 AM 71.6 °F - 68.0 °F 88% 29.76 in 10.0 mi North 8.1 mph - N/A   Clear
2:55 AM 73.4 °F - 69.8 °F 88% 29.76 in 10.0 mi NNE 11.5 mph - N/A   Clear
3:15 AM 73.4 °F - 69.8 °F 88% 29.76 in 10.0 mi NNE 9.2 mph - N/A   Mostly Cloudy
3:35 AM 71.6 °F - 69.8 °F 94% 29.77 in 10.0 mi NNE 18.4 mph 21.9 mph N/A   Overcast
3:55 AM 71.6 °F - 68.0 °F 88% 29.78 in 10.0 mi NNE 16.1 mph 23.0 mph N/A   Overcast
4:15 AM 71.6 °F - 66.2 °F 83% 29.79 in 9.0 mi NNE 12.7 mph 19.6 mph N/A   Overcast
4:35 AM 71.6 °F - 66.2 °F 83% 29.80 in 10.0 mi NNE 13.8 mph 19.6 mph N/A   Overcast
4:55 AM 69.8 °F - 64.4 °F 83% 29.80 in 10.0 mi NE 13.8 mph - N/A   Overcast
5:15 AM 69.8 °F - 64.4 °F 83% 29.80 in 10.0 mi NE 13.8 mph - N/A   Overcast
5:35 AM 69.8 °F - 62.6 °F 78% 29.81 in 10.0 mi NNE 13.8 mph - N/A   Overcast
5:55 AM 69.8 °F - 62.6 °F 78% 29.82 in 10.0 mi NNE 12.7 mph 18.4 mph N/A   Overcast
6:15 AM 69.8 °F - 62.6 °F 78% 29.83 in 10.0 mi NNE 12.7 mph 23.0 mph N/A   Mostly Cloudy
6:35 AM 68.0 °F - 62.6 °F 83% 29.84 in 10.0 mi NNE 12.7 mph - N/A   Partly Cloudy
6:55 AM 68.0 °F - 62.6 °F 83% 29.84 in 10.0 mi NNE 13.8 mph - N/A   Clear
7:15 AM 69.8 °F - 62.6 °F 78% 29.85 in 7.0 mi NNE 13.8 mph - N/A   Clear
7:35 AM 69.8 °F - 62.6 °F 78% 29.86 in 9.0 mi NNE 15.0 mph - N/A   Clear
8:15 AM 69.8 °F - 62.6 °F 78% 29.87 in 8.0 mi NNE 13.8 mph - N/A   Partly Cloudy
8:35 AM 71.6 °F - 62.6 °F 73% 29.87 in 5.0 mi NNE 15.0 mph - N/A   Mostly Cloudy
8:55 AM 71.6 °F - 62.6 °F 73% 29.87 in 8.0 mi NNE 16.1 mph 20.7 mph N/A   Partly Cloudy
9:15 AM 71.6 °F - 62.6 °F 73% 29.88 in 10.0 mi NNE 13.8 mph - N/A   Clear
9:35 AM 73.4 °F - 62.6 °F 69% 29.88 in 2.5 mi NNE 16.1 mph - N/A   Partly Cloudy
9:55 AM 73.4 °F - 60.8 °F 65% 29.88 in 5.0 mi NNE 13.8 mph - N/A   Scattered Clouds
10:15 AM 75.2 °F - 62.6 °F 65% 29.88 in 10.0 mi NNE 11.5 mph - N/A   Partly Cloudy
10:35 AM 75.2 °F - 62.6 °F 65% 29.88 in 8.0 mi NNE 15.0 mph - N/A   Partly Cloudy
10:55 AM 75.2 °F - 62.6 °F 65% 29.89 in 5.0 mi NNE 12.7 mph - N/A   Partly Cloudy
11:15 AM 77.0 °F - 62.6 °F 61% 29.89 in 3.0 mi NNE 15.0 mph - N/A   Clear
11:35 AM 78.8 °F - 62.6 °F 57% 29.89 in 8.0 mi NNE 12.7 mph - N/A   Clear
11:55 AM 78.8 °F - 62.6 °F 57% 29.89 in 5.0 mi NNE 11.5 mph - N/A   Clear
12:15 PM 78.8 °F - 60.8 °F 54% 29.88 in 10.0 mi NNE 13.8 mph 18.4 mph N/A   Clear
12:35 PM 80.6 °F 81.5 °F 60.8 °F 51% 29.88 in 10.0 mi NNE 13.8 mph - N/A   Clear
12:55 PM 80.6 °F 81.5 °F 60.8 °F 51% 29.87 in 10.0 mi NNE 13.8 mph 19.6 mph N/A   Clear
1:15 PM 80.6 °F 81.5 °F 60.8 °F 51% 29.87 in 9.0 mi NNE 15.0 mph - N/A   Clear
1:35 PM 82.4 °F 82.5 °F 59.0 °F 45% 29.86 in 10.0 mi NNE 15.0 mph - N/A   Clear
1:55 PM 82.4 °F 82.0 °F 57.2 °F 42% 29.85 in 10.0 mi NE 18.4 mph 21.9 mph N/A   Clear
2:15 PM 84.2 °F 83.0 °F 55.4 °F 37% 29.85 in 7.0 mi NE 17.3 mph 20.7 mph N/A   Clear
2:35 PM 84.2 °F 83.0 °F 55.4 °F 37% 29.84 in 10.0 mi NE 11.5 mph - N/A   Clear
2:55 PM 84.2 °F 83.0 °F 55.4 °F 37% 29.84 in 10.0 mi NE 15.0 mph - N/A   Clear
3:15 PM 84.2 °F 83.0 °F 55.4 °F 37% 29.83 in 10.0 mi NE 15.0 mph - N/A   Clear
3:35 PM 84.2 °F 83.0 °F 55.4 °F 37% 29.83 in 10.0 mi NE 12.7 mph 16.1 mph N/A   Clear
3:55 PM 84.2 °F 83.5 °F 57.2 °F 40% 29.83 in 10.0 mi NE 16.1 mph - N/A   Clear
4:15 PM 84.2 °F 83.0 °F 55.4 °F 37% 29.83 in 10.0 mi NE 13.8 mph 18.4 mph N/A   Clear
4:35 PM 84.2 °F 83.0 °F 55.4 °F 37% 29.83 in 10.0 mi NE 15.0 mph - N/A   Clear
4:55 PM 84.2 °F 83.0 °F 55.4 °F 37% 29.83 in 10.0 mi ENE 15.0 mph - N/A   Clear
5:15 PM 84.2 °F 83.0 °F 55.4 °F 37% 29.82 in 10.0 mi ENE 16.1 mph - N/A   Clear
5:35 PM 82.4 °F 81.7 °F 55.4 °F 39% 29.82 in 10.0 mi ENE 16.1 mph - N/A   Clear
5:55 PM 82.4 °F 81.7 °F 55.4 °F 39% 29.82 in 10.0 mi ENE 16.1 mph - N/A   Clear
6:15 PM 82.4 °F 82.0 °F 57.2 °F 42% 29.82 in 10.0 mi ENE 11.5 mph - N/A   Clear
6:35 PM 80.6 °F 80.5 °F 55.4 °F 42% 29.82 in 10.0 mi ENE 10.4 mph - N/A   Clear
6:55 PM 80.6 °F 80.5 °F 55.4 °F 42% 29.83 in 10.0 mi East 10.4 mph - N/A   Clear
7:15 PM 78.8 °F - 57.2 °F 47% 29.84 in 10.0 mi ENE 9.2 mph - N/A   Clear
7:35 PM 78.8 °F - 57.2 °F 47% 29.84 in 10.0 mi ENE 9.2 mph - N/A   Clear
7:55 PM 77.0 °F - 59.0 °F 54% 29.85 in 10.0 mi ENE 8.1 mph - N/A   Clear
8:15 PM 75.2 °F - 60.8 °F 61% 29.85 in 10.0 mi ENE 8.1 mph - N/A   Clear
8:35 PM 73.4 °F - 60.8 °F 65% 29.85 in 10.0 mi ENE 8.1 mph - N/A   Clear
8:55 PM 73.4 °F - 60.8 °F 65% 29.86 in 10.0 mi ENE 6.9 mph - N/A   Clear
9:35 PM 71.6 °F - 62.6 °F 73% 29.87 in 10.0 mi ENE 9.2 mph - N/A   Clear
9:55 PM 71.6 °F - 60.8 °F 69% 29.88 in 8.0 mi ENE 8.1 mph - N/A   Clear
10:15 PM 71.6 °F - 60.8 °F 69% 29.89 in 10.0 mi ENE 6.9 mph - N/A   Clear
10:35 PM 69.8 °F - 60.8 °F 73% 29.90 in 10.0 mi ENE 5.8 mph - N/A   Clear
10:55 PM 69.8 °F - 60.8 °F 73% 29.90 in 10.0 mi ENE 5.8 mph - N/A   Clear
11:35 PM 68.0 °F - 62.6 °F 83% 29.91 in 10.0 mi NE 5.8 mph - N/A   Clear
11:55 PM 68.0 °F - 60.8 °F 78% 29.91 in 10.0 mi NE 6.9 mph - N/A   Clear